Time,TemperatureF,DewpointF,PressureIn,WindDirection,WindDirectionDegrees,WindSpeedMPH,WindSpeedGustMPH,Humidity,HourlyPrecipIn,Conditions,Clouds,dailyrainin,SoftwareType,DateUTC
2013-06-17 00:04:00,62.6,59.0,29.82,NNE,26,1.0,1.0,87,0.00,,,0.00,weatherlink.com 1.10,2013-06-17 04:04:00,
2013-06-17 00:19:00,62.2,58.0,29.82,WNW,293,0.0,2.0,87,0.00,,,0.00,weatherlink.com 1.10,2013-06-17 04:19:00,
2013-06-17 00:34:00,62.1,58.0,29.83,NNW,343,0.0,2.0,87,0.00,,,0.00,weatherlink.com 1.10,2013-06-17 04:34:00,
2013-06-17 00:49:00,62.2,58.0,29.83,North,1,0.0,1.0,87,0.00,,,0.00,weatherlink.com 1.10,2013-06-17 04:49:00,
2013-06-17 01:04:00,61.6,58.0,29.84,North,6,0.0,1.0,87,0.00,,,0.00,weatherlink.com 1.10,2013-06-17 05:04:00,
2013-06-17 01:19:00,60.7,58.0,29.84,North,8,0.0,1.0,89,0.00,,,0.00,weatherlink.com 1.10,2013-06-17 05:19:00,
2013-06-17 01:35:00,60.0,57.0,29.84,East,89,0.0,2.0,90,0.00,,,0.00,weatherlink.com 1.10,2013-06-17 05:35:00,
2013-06-17 01:49:00,59.6,57.0,29.84,East,91,0.0,1.0,90,0.00,,,0.00,weatherlink.com 1.10,2013-06-17 05:49:00,
2013-06-17 02:04:00,58.7,56.0,29.84,East,91,0.0,1.0,91,0.00,,,0.00,weatherlink.com 1.10,2013-06-17 06:04:00,
2013-06-17 02:19:00,57.9,56.0,29.84,East,91,0.0,1.0,92,0.00,,,0.00,weatherlink.com 1.10,2013-06-17 06:19:00,
2013-06-17 02:35:00,57.0,55.0,29.84,East,90,0.0,1.0,93,0.00,,,0.00,weatherlink.com 1.10,2013-06-17 06:35:00,
2013-06-17 02:50:00,56.3,54.0,29.84,East,91,0.0,0.0,93,0.00,,,0.00,weatherlink.com 1.10,2013-06-17 06:50:00,
2013-06-17 03:05:00,55.8,54.0,29.84,East,91,0.0,1.0,94,0.00,,,0.00,weatherlink.com 1.10,2013-06-17 07:05:00,
2013-06-17 03:20:00,55.4,54.0,29.84,East,90,0.0,1.0,94,0.00,,,0.00,weatherlink.com 1.10,2013-06-17 07:20:00,
2013-06-17 03:35:00,55.0,54.0,29.84,East,89,0.0,1.0,95,0.00,,,0.00,weatherlink.com 1.10,2013-06-17 07:35:00,
2013-06-17 03:50:00,55.0,54.0,29.86,East,84,0.0,1.0,95,0.00,,,0.00,weatherlink.com 1.10,2013-06-17 07:50:00,
2013-06-17 04:05:00,55.5,54.0,29.86,East,86,0.0,1.0,96,0.00,,,0.00,weatherlink.com 1.10,2013-06-17 08:05:00,
2013-06-17 04:20:00,56.2,55.0,29.86,East,83,0.0,1.0,96,0.00,,,0.00,weatherlink.com 1.10,2013-06-17 08:20:00,
2013-06-17 04:35:00,56.7,55.0,29.85,East,83,0.0,1.0,95,0.00,,,0.00,weatherlink.com 1.10,2013-06-17 08:35:00,
2013-06-17 04:50:00,56.8,55.0,29.86,East,81,0.0,1.0,95,0.00,,,0.00,weatherlink.com 1.10,2013-06-17 08:50:00,
2013-06-17 05:05:00,56.8,55.0,29.86,North,356,1.0,2.0,94,0.00,,,0.00,weatherlink.com 1.10,2013-06-17 09:05:00,
2013-06-17 05:20:00,56.5,55.0,29.87,North,360,0.0,1.0,94,0.00,,,0.00,weatherlink.com 1.10,2013-06-17 09:20:00,
2013-06-17 05:35:00,56.6,55.0,29.86,North,11,0.0,1.0,95,0.00,,,0.00,weatherlink.com 1.10,2013-06-17 09:35:00,
2013-06-17 05:50:00,57.6,56.0,29.87,North,360,0.0,2.0,94,0.00,,,0.00,weatherlink.com 1.10,2013-06-17 09:50:00,
2013-06-17 06:05:00,57.7,56.0,29.86,NNE,14,0.0,1.0,94,0.00,,,0.00,weatherlink.com 1.10,2013-06-17 10:05:00,
2013-06-17 06:20:00,58.6,57.0,29.86,SSW,207,0.0,2.0,94,0.00,,,0.00,weatherlink.com 1.10,2013-06-17 10:20:00,
2013-06-17 06:35:00,59.2,57.0,29.87,ESE,110,0.0,4.0,93,0.00,,,0.00,weatherlink.com 1.10,2013-06-17 10:35:00,
2013-06-17 06:50:00,59.9,58.0,29.87,North,6,0.0,3.0,93,0.00,,,0.00,weatherlink.com 1.10,2013-06-17 10:50:00,
2013-06-17 07:05:00,62.5,59.0,29.88,West,259,4.0,5.0,89,0.00,,,0.00,weatherlink.com 1.10,2013-06-17 11:05:00,
2013-06-17 07:20:00,64.9,61.0,29.88,NE,34,2.0,4.0,86,0.00,,,0.00,weatherlink.com 1.10,2013-06-17 11:20:00,
2013-06-17 07:35:00,67.1,61.0,29.88,SE,141,1.0,6.0,80,0.00,,,0.00,weatherlink.com 1.10,2013-06-17 11:35:00,
2013-06-17 07:50:00,68.0,61.0,29.88,West,265,0.0,6.0,79,0.00,,,0.00,weatherlink.com 1.10,2013-06-17 11:50:00,
2013-06-17 08:05:00,68.5,62.0,29.88,West,269,1.0,2.0,80,0.00,,,0.00,weatherlink.com 1.10,2013-06-17 12:05:00,
2013-06-17 08:20:00,70.1,62.0,29.89,South,191,6.0,6.0,76,0.00,,,0.00,weatherlink.com 1.10,2013-06-17 12:20:00,
2013-06-17 08:35:00,70.5,62.0,29.89,WSW,238,3.0,6.0,74,0.00,,,0.00,weatherlink.com 1.10,2013-06-17 12:35:00,
2013-06-17 08:50:00,71.0,62.0,29.89,SE,131,1.0,7.0,73,0.00,,,0.00,weatherlink.com 1.10,2013-06-17 12:50:00,
2013-06-17 09:05:00,71.6,62.0,29.89,South,184,2.0,7.0,71,0.00,,,0.00,weatherlink.com 1.10,2013-06-17 13:05:00,
2013-06-17 09:20:00,72.0,62.0,29.88,WSW,253,4.0,7.0,70,0.00,,,0.00,weatherlink.com 1.10,2013-06-17 13:20:00,
2013-06-17 09:35:00,72.6,62.0,29.88,NNE,18,0.0,6.0,70,0.00,,,0.00,weatherlink.com 1.10,2013-06-17 13:35:00,
2013-06-17 09:50:00,72.6,61.0,29.88,NNW,339,2.0,9.0,68,0.00,,,0.00,weatherlink.com 1.10,2013-06-17 13:50:00,
2013-06-17 10:05:00,73.2,61.0,29.88,WNW,287,2.0,14.0,66,0.00,,,0.00,weatherlink.com 1.10,2013-06-17 14:05:00,
2013-06-17 10:20:00,73.8,61.0,29.88,WSW,239,1.0,12.0,65,0.00,,,0.00,weatherlink.com 1.10,2013-06-17 14:20:00,
2013-06-17 10:36:00,74.6,63.0,29.87,South,169,2.0,12.0,68,0.00,,,0.00,weatherlink.com 1.10,2013-06-17 14:36:00,
2013-06-17 10:51:00,74.8,62.0,29.87,North,354,0.0,8.0,65,0.00,,,0.00,weatherlink.com 1.10,2013-06-17 14:51:00,
2013-06-17 11:06:00,75.3,61.0,29.86,SW,219,1.0,7.0,62,0.00,,,0.00,weatherlink.com 1.10,2013-06-17 15:06:00,
2013-06-17 11:21:00,76.0,61.0,29.86,WNW,283,2.0,7.0,60,0.00,,,0.00,weatherlink.com 1.10,2013-06-17 15:21:00,
2013-06-17 11:36:00,77.0,60.0,29.85,WSW,240,1.0,7.0,57,0.00,,,0.00,weatherlink.com 1.10,2013-06-17 15:36:00,
2013-06-17 11:51:00,77.2,61.0,29.85,NE,36,2.0,5.0,57,0.00,,,0.00,weatherlink.com 1.10,2013-06-17 15:51:00,
2013-06-17 12:06:00,76.6,60.0,29.85,SW,229,3.0,7.0,56,0.00,,,0.00,weatherlink.com 1.10,2013-06-17 16:06:00,
2013-06-17 12:21:00,76.3,61.0,29.85,SE,131,0.0,8.0,59,0.00,,,0.00,weatherlink.com 1.10,2013-06-17 16:21:00,
2013-06-17 12:36:00,76.5,61.0,29.85,SE,145,3.0,7.0,60,0.00,,,0.00,weatherlink.com 1.10,2013-06-17 16:36:00,
2013-06-17 12:51:00,75.8,62.0,29.85,NNE,30,1.0,2.0,62,0.00,,,0.00,weatherlink.com 1.10,2013-06-17 16:51:00,
2013-06-17 13:06:00,76.3,59.0,29.85,West,281,2.0,5.0,55,0.00,,,0.00,weatherlink.com 1.10,2013-06-17 17:06:00,
2013-06-17 13:21:00,77.9,59.0,29.84,SW,228,7.0,12.0,52,0.00,,,0.00,weatherlink.com 1.10,2013-06-17 17:21:00,
2013-06-17 13:36:00,77.0,58.0,29.84,ENE,69,4.0,8.0,52,0.00,,,0.00,weatherlink.com 1.10,2013-06-17 17:36:00,
2013-06-17 13:51:00,77.7,59.0,29.83,SSE,148,0.0,10.0,52,0.00,,,0.00,weatherlink.com 1.10,2013-06-17 17:51:00,
2013-06-17 14:06:00,77.8,59.0,29.84,SSE,155,4.0,6.0,52,0.00,,,0.00,weatherlink.com 1.10,2013-06-17 18:06:00,
2013-06-17 14:21:00,78.1,58.0,29.84,SSE,163,0.0,7.0,50,0.00,,,0.00,weatherlink.com 1.10,2013-06-17 18:21:00,
2013-06-17 14:36:00,78.1,58.0,29.84,WSW,243,2.0,10.0,50,0.00,,,0.00,weatherlink.com 1.10,2013-06-17 18:36:00,
2013-06-17 14:51:00,78.4,59.0,29.82,ESE,121,0.0,7.0,51,0.00,,,0.00,weatherlink.com 1.10,2013-06-17 18:51:00,
2013-06-17 15:06:00,77.9,58.0,29.84,NNE,18,0.0,3.0,51,0.00,,,0.00,weatherlink.com 1.10,2013-06-17 19:06:00,
2013-06-17 15:21:00,75.3,59.0,29.87,WNW,288,3.0,6.0,57,0.00,,,0.00,weatherlink.com 1.10,2013-06-17 19:21:00,
2013-06-17 15:36:00,65.0,60.0,29.88,NNE,32,1.0,3.0,83,0.20,,,0.20,weatherlink.com 1.10,2013-06-17 19:36:00,
2013-06-17 15:51:00,62.0,60.0,29.89,NW,309,0.0,2.0,92,0.23,,,0.23,weatherlink.com 1.10,2013-06-17 19:51:00,
2013-06-17 16:06:00,61.3,59.0,29.90,NW,314,1.0,1.0,93,0.24,,,0.24,weatherlink.com 1.10,2013-06-17 20:06:00,
2013-06-17 16:21:00,61.0,59.0,29.90,NNE,12,0.0,2.0,93,0.28,,,0.29,weatherlink.com 1.10,2013-06-17 20:21:00,
2013-06-17 16:36:00,61.0,59.0,29.90,SW,229,0.0,1.0,94,0.11,,,0.31,weatherlink.com 1.10,2013-06-17 20:36:00,
2013-06-17 16:51:00,61.1,59.0,29.88,NE,48,0.0,2.0,93,0.11,,,0.34,weatherlink.com 1.10,2013-06-17 20:51:00,
2013-06-17 17:06:00,61.2,60.0,29.88,NE,48,0.0,0.0,94,0.10,,,0.35,weatherlink.com 1.10,2013-06-17 21:06:00,
2013-06-17 17:36:00,61.5,60.0,29.88,North,359,0.0,1.0,94,0.03,,,0.35,weatherlink.com 1.10,2013-06-17 21:36:00,
2013-06-17 17:51:00,62.1,60.0,29.88,East,94,0.0,4.0,92,0.01,,,0.35,weatherlink.com 1.10,2013-06-17 21:51:00,
2013-06-17 18:06:00,63.1,60.0,29.87,SW,233,2.0,5.0,90,0.00,,,0.35,weatherlink.com 1.10,2013-06-17 22:06:00,
2013-06-17 18:21:00,63.0,61.0,29.87,NE,42,0.0,1.0,93,0.00,,,0.35,weatherlink.com 1.10,2013-06-17 22:21:00,
2013-06-17 18:36:00,63.0,62.0,29.86,NE,43,0.0,1.0,95,0.00,,,0.35,weatherlink.com 1.10,2013-06-17 22:36:00,
2013-06-17 18:51:00,63.3,62.0,29.87,NE,43,0.0,1.0,96,0.00,,,0.35,weatherlink.com 1.10,2013-06-17 22:51:00,
2013-06-17 19:06:00,63.3,62.0,29.88,NE,43,0.0,0.0,95,0.00,,,0.35,weatherlink.com 1.10,2013-06-17 23:06:00,
2013-06-17 19:21:00,63.0,62.0,29.88,NE,43,0.0,0.0,95,0.00,,,0.35,weatherlink.com 1.10,2013-06-17 23:21:00,
2013-06-17 19:36:00,62.4,61.0,29.89,NE,42,0.0,0.0,95,0.00,,,0.35,weatherlink.com 1.10,2013-06-17 23:36:00,
2013-06-17 19:51:00,61.9,61.0,29.89,NNW,340,0.0,1.0,96,0.00,,,0.35,weatherlink.com 1.10,2013-06-17 23:51:00,
2013-06-17 20:21:00,60.8,60.0,29.91,NNW,340,0.0,1.0,96,0.00,,,0.35,weatherlink.com 1.10,2013-06-18 00:21:00,
2013-06-17 20:36:00,60.2,59.0,29.91,NNW,340,0.0,0.0,96,0.00,,,0.35,weatherlink.com 1.10,2013-06-18 00:36:00,
2013-06-17 20:51:00,59.6,59.0,29.92,NNW,341,0.0,0.0,96,0.00,,,0.35,weatherlink.com 1.10,2013-06-18 00:51:00,
2013-06-17 21:06:00,59.2,58.0,29.93,North,6,0.0,0.0,96,0.00,,,0.35,weatherlink.com 1.10,2013-06-18 01:06:00,
2013-06-17 21:22:00,58.6,58.0,29.94,North,6,0.0,0.0,96,0.00,,,0.35,weatherlink.com 1.10,2013-06-18 01:22:00,
2013-06-17 21:37:00,58.6,58.0,29.94,North,6,0.0,0.0,97,0.00,,,0.35,weatherlink.com 1.10,2013-06-18 01:37:00,
2013-06-17 21:52:00,58.6,58.0,29.94,North,6,0.0,0.0,97,0.00,,,0.35,weatherlink.com 1.10,2013-06-18 01:52:00,
2013-06-17 22:07:00,58.8,58.0,29.94,North,6,0.0,0.0,97,0.00,,,0.35,weatherlink.com 1.10,2013-06-18 02:07:00,
2013-06-17 22:22:00,58.8,58.0,29.94,North,6,0.0,0.0,97,0.00,,,0.35,weatherlink.com 1.10,2013-06-18 02:22:00,
2013-06-17 22:37:00,58.5,58.0,29.94,North,6,0.0,0.0,97,0.00,,,0.35,weatherlink.com 1.10,2013-06-18 02:37:00,
2013-06-17 22:52:00,58.5,58.0,29.93,North,6,0.0,0.0,97,0.00,,,0.35,weatherlink.com 1.10,2013-06-18 02:52:00,
2013-06-17 23:07:00,58.1,57.0,29.94,North,6,0.0,0.0,97,0.00,,,0.35,weatherlink.com 1.10,2013-06-18 03:07:00,
2013-06-17 23:22:00,58.1,57.0,29.93,North,6,0.0,0.0,97,0.00,,,0.35,weatherlink.com 1.10,2013-06-18 03:22:00,
2013-06-17 23:37:00,57.8,57.0,29.93,North,6,0.0,0.0,97,0.00,,,0.35,weatherlink.com 1.10,2013-06-18 03:37:00,
2013-06-17 23:52:00,57.6,57.0,29.94,North,6,0.0,0.0,97,0.00,,,0.35,weatherlink.com 1.10,2013-06-18 03:52:00,